Content
SEND FEEDBACK

Daily
Averages
Monthly
Summary
Mexico

PUEBLA - JARDINES DE SAN MANUEL, PUEBLA


Home > North America > Mexico > Puebla
Elevation: 6962 feet     Latitude: 19 00N     Longitude: 098 11W

WEATHER
 
SELECT A DAY
Number of Records: 125,673;   Date Range: 1/1/95 - 12/27/14
 
SHARE

PRINT THIS DATA

[ ← Previous Day ]
WEATHER ALMANAC - MARCH 6, 2013
[ Next Day → ]
[ °C ]   °F
Weather ElementAverageHighLow
Temperature59.6 °F76 °F (2:40 pm)37.4 °F (5:46 am)
Dewpoint29.1 °F45 °F (11:50 pm)14 °F (11:42 am)
Humidity34.9 %76 % (11:50 pm)12 % (11:42 am)
Barometer30.26 in30.46 in (8:40 am)29.78 in (5:40 pm)
Wind Speed7.8 mph19.6 mph (4:42 pm)
Weather ElementAverage
Visibility7.8 mi
Wind DirectionSSE (147.5 °)

Weather ElementTotal
Precipitation---
Heating Degree Days8.3 (Base 65)
Growing Degree Days6.7 (Base 50)
Averaged from 25 records on March 6, 2013
WEATHER CONDITIONS BREAKOUT
WIND DIRECTION BREAKOUT
WEATHER BY HOUR - MARCH 6, 2013
[ °C ]   °F
Local TimeTemperatureDewpointHumidityBarometerVisibilityWind DirectionWind SpeedGust SpeedPrecipitationEventsConditions
5:45 AM40.0 °F30.0 °F57 %30.03 in3.0 miCalm
5:46 AM37.4 °F23.0 °F56 %30.39 in10.0 miNNW (340°)4.6 mphClear
6:40 AM37.4 °F23.0 °F56 %30.41 in10.0 miNNW (340°)6.9 mphClear
7:41 AM42.8 °F26.6 °F53 %30.44 in10.0 miNNW (340°)4.6 mphClear
8:40 AM50.0 °F30.2 °F47 %30.46 in8.0 miCalmClear
8:45 AM51.0 °F34.0 °F40 %30.20 in3.0 miNNE (30°)2.2 mphHaze
9:40 AM57.2 °F26.6 °F31 %30.46 in8.0 miNNE (30°)6.9 mphClear
10:40 AM62.6 °F24.8 °F24 %30.45 in8.0 miCalmClear
11:40 AM70.0 °F35.0 °F17 %30.14 in6.0 miNorth4.5 mphHaze
11:42 AM69.8 °F14.0 °F12 %30.43 in6.0 miSouth (170°)13.8 mphClear
12:40 PM69.8 °F17.6 °F14 %30.39 in8.0 miSouth (170°)16.1 mphClear
1:42 PM73.4 °F24.8 °F16 %30.25 in8.0 miSE (140°)13.8 mphClear
2:40 PM76.0 °F35.0 °F13 %29.94 in6.0 miSSE (160°)4.5 mphHaze
2:43 PM73.4 °F21.2 °F14 %30.32 in10.0 miSE (140°)9.2 mphClear
3:42 PM73.4 °F19.4 °F13 %30.29 in10.0 miSouth (180°)10.4 mphClear
4:42 PM73.4 °F21.2 °F14 %30.27 in10.0 miSouth (170°)19.6 mphPartly Cloudy
5:40 PM74.0 °F32.0 °F12 %29.78 in6.0 miSSE (160°)4.5 mphHaze
5:41 PM69.8 °F24.8 °F18 %30.29 in10.0 miSouth (190°)13.8 mphPartly Cloudy
6:41 PM64.4 °F23.0 °F21 %30.31 in10.0 miSouth (170°)13.8 mphClear
7:43 PM59.0 °F35.6 °F42 %30.34 in10.0 miESE (120°)12.7 mphClear
8:44 PM55.4 °F39.2 °F54 %30.37 in10.0 miSE (140°)9.2 mphClear
8:50 PM56.0 °F42.0 °F49 %29.83 in3.0 miENE (60°)8.9 mph
9:44 PM53.6 °F39.2 °F58 %30.39 in10.0 miWSW (240°)5.8 mphClear
10:46 PM50.0 °F39.2 °F66 %30.40 in10.0 miSSW (210°)5.8 mphClear
11:50 PM50.0 °F45.0 °F76 %29.91 in3.0 miNE (40°)4.5 mph
Hourly data recorded from MMPB, located miles away from Puebla - Jardines de San Manuel, Puebla







STORIES FROM OUR PARTNERS